Location: Bergheim
(50.9593°N, 6.6400°E)
Time: 12:28:58
(UTC+01:00)

ISS - Pass Details

Date: 25 November 2019
Orbit: 411 x 421 km, 51.6° (Epoch: 08 December)

Event Time Altitude Azimuth Distance (km) Brightness Sun altitude
Rises 17:36:18 0° 205° (SSW) 2,344 0.8 -9.4°
Reaches altitude 10° 17:38:50 10° 185° (S) 1,488 -0.6 -9.7°
Maximum altitude 17:41:08 17° 141° (SE) 1,124 -1.8 -10.1°
Enters shadow 17:43:06 12° 102° (ESE) 1,405 -1.6 -10.4°
